Location: Unspecified
(0.0000°N, 0.0000°E)
Time: 22:37:24
(UTC+02:00)

NATO 3D Rocket - Visible Passes

Search period start: 25 October 2014 00:00
Search period end: 03 November 2014 23:00
Orbit: 670 x 2297 km, 21.5° (Epoch: 21 October)

Date Brightness Start Highest point End Pass type
(mag) Time Alt. Az. Time Alt. Az. Time Alt. Az.
25 Oct 6.9 20:45:01 10° SW 20:55:34 26° S 21:04:30 10° SE visible
25 Oct 6.4 22:53:18 10° SW 23:01:16 28° S 23:01:16 28° S visible
26 Oct 7.0 18:45:15 10° WSW 18:56:24 27° S 19:06:29 10° SE visible
26 Oct 6.3 20:53:58 10° SW 21:04:29 28° S 21:07:48 25° SSE visible
26 Oct 7.0 23:00:52 10° SW 23:03:21 17° SW 23:03:21 17° SW visible
27 Oct 6.8 19:54:31 10° SW 20:05:35 28° S 20:14:18 12° SE visible
27 Oct 6.3 22:01:52 10° SW 22:09:51 33° SSW 22:09:51 33° SSW visible
28 Oct 7.0 18:55:07 10° SW 19:06:24 28° S 19:16:38 10° SE visible
28 Oct 6.1 21:02:44 10° SW 21:14:22 35° SSE 21:16:21 33° SSE visible
28 Oct 7.1 23:09:26 10° WSW 23:11:53 18° SW 23:11:53 18° SW visible
29 Oct 6.5 20:03:35 10° SW 20:15:30 33° S 20:22:50 18° ESE visible
29 Oct 6.2 22:10:23 10° SW 22:18:22 38° SSW 22:18:22 38° SSW visible
30 Oct 6.9 19:04:33 10° SW 19:16:20 31° S 19:27:03 10° ESE visible
30 Oct 5.8 21:11:20 10° SW 21:24:02 46° SSE 21:24:51 45° SSE visible
30 Oct 7.2 23:18:10 10° WSW 23:20:24 17° WSW 23:20:24 17° WSW visible
31 Oct 6.2 20:12:23 10° SW 20:25:12 41° SSE 20:31:20 26° ESE visible
31 Oct 6.2 22:19:00 10° WSW 22:26:53 41° SW 22:26:53 41° SW visible
01 Nov 6.6 19:13:36 10° SW 19:26:06 37° SSE 19:37:28 10° ESE visible
01 Nov 5.6 21:19:56 10° WSW 21:33:22 60° SSE 21:33:22 60° SSE visible
01 Nov 7.3 23:27:10 10° WSW 23:28:54 15° WSW 23:28:54 15° WSW visible
02 Nov 5.9 20:21:03 10° SW 20:34:40 52° SSE 20:39:51 36° ESE visible
02 Nov 6.3 22:27:48 10° WSW 22:35:23 40° WSW 22:35:23 40° WSW visible
03 Nov 6.4 19:22:27 10° SW 19:35:38 45° SSE 19:46:20 14° E visible
03 Nov 5.4 21:28:38 10° WSW 21:41:53 77° SSW 21:41:53 77° SSW visible
